This demonstration page uses our WeatherBlox Daily Observations layout. Learn more.

Left ArrowRight Arrow

39.51506, -84.39828

Hourly Observations for August 26, 2016

Temp ( °F °C ) Dew Point ( °F °C ) Humidity (%) Winds ( mph kmh ) Pressure ( in mb ) Visibility ( mi km ) Precip ( " mm )
12:15 am 00:15 Mostly Cloudy 77 24.8 72 22 84 84 N N/A 30.06 1018 7 11 N/A
12:35 am 00:35 Mostly Cloudy 76 24.3 71 21.4 84 84 N N/A 30.06 1018 7 11 N/A
12:55 am 00:55 Mostly Cloudy 77 25.1 72 22.1 83 83 N N/A 30.06 1018 7 11 N/A
1:15 am 01:15 Partly Cloudy 75 24.1 70 21.3 84 84 N N/A 30.06 1018 7 11 N/A
1:35 am 01:35 Mostly Cloudy with Mist and Fog 75 24.1 71 21.4 85 85 NW 7 11 30.06 1018 5 8 N/A
1:55 am 01:55 Mostly Cloudy 77 25.1 72 22.1 83 83 N N/A 30.06 1018 10 16 N/A
2:15 am 02:15 Mostly Cloudy 77 25.1 72 22 83 83 N N/A 30.06 1018 10 16 N/A
2:35 am 02:35 Partly Cloudy 77 25.1 72 22.3 85 85 N N/A 30.06 1018 7 11 N/A
2:55 am 02:55 Hazy 74 23.6 70 21 85 85 N N/A 30.09 1019 5 8 N/A
3:15 am 03:15 Partly Cloudy 74 23.6 70 21 85 85 N N/A 30.09 1019 7 11 N/A
3:35 am 03:35 Clear 74 23.6 70 21 85 85 N N/A 30.09 1019 7 11 N/A
3:55 am 03:55 Clear 74 23.6 70 21 85 85 N N/A 30.09 1019 7 11 N/A
4:15 am 04:15 Clear 74 23.6 70 21 85 85 N N/A 30.09 1019 7 11 N/A
4:35 am 04:35 Hazy 74 23.6 70 21 85 85 NNW 3 6 30.09 1019 4 6 N/A
4:55 am 04:55 Hazy 74 23.6 70 21 85 85 N N/A 30.09 1019 3 5 N/A
5:15 am 05:15 Mostly Cloudy with Haze 74 23.2 69 20.5 85 85 N N/A 30.09 1019 1 1 N/A
5:35 am 05:35 Hazy 74 23.6 70 21 85 85 NNW 3 6 30.09 1019 3 5 N/A
5:55 am 05:55 Mostly Cloudy with Haze 74 23.6 70 21 85 85 N N/A 30.09 1019 4 6 N/A
6:15 am 06:15 Partly Cloudy 74 23.6 70 21 85 85 N N/A 30.09 1019 7 11 N/A
6:35 am 06:35 Clear with Mist and Fog 74 23.5 70 21 86 86 N N/A 30.09 1019 3 4 N/A
6:55 am 06:55 Clear with Mist and Fog 72 22.4 68 19.9 86 86 NNW 5 7 30.09 1019 5 8 N/A
7:15 am 07:15 Sunny with Mist and Fog 74 23.5 70 21 86 86 N N/A 30.09 1019 3 5 N/A
7:35 am 07:35 Hazy 74 23.6 70 21.1 86 86 N N/A 30.12 1020 5 8 N/A
7:55 am 07:55 Hazy 74 23.6 70 21.1 86 86 N N/A 30.12 1020 5 8 N/A
8:15 am 08:15 Hazy 74 23.6 70 21.1 86 86 N N/A 30.12 1020 5 8 N/A
8:35 am 08:35 Sunny 74 23.6 70 21.1 86 86 N N/A 30.12 1020 7 11 N/A
8:55 am 08:55 Sunny 77 25.1 72 22.3 85 85 N N/A 30.12 1020 7 11 N/A
9:15 am 09:15 Sunny 79 26.3 73 22.9 82 82 N N/A 30.15 1021 10 16 N/A
9:35 am 09:35 Sunny 80 26.5 72 22.2 77 77 N N/A 30.15 1021 10 16 N/A
9:55 am 09:55 Sunny 81 27.2 72 22.3 75 75 NNE 3 6 30.12 1020 10 16 N/A
10:15 am 10:15 Sunny 82 28 72 22.3 71 71 N N/A 30.15 1021 10 16 N/A
10:35 am 10:35 Sunny 82 28 72 22.2 71 71 N N/A 30.12 1020 10 16 N/A
10:55 am 10:55 Sunny 84 28.8 70 20.9 62 62 N N/A 30.12 1020 10 16 N/A
11:15 am 11:15 Partly Cloudy 88 31 71 21.7 58 58 SSE 3 6 30.09 1019 10 16 N/A
11:35 am 11:35 Partly Cloudy 89 31.6 71 21.8 56 56 N N/A 30.09 1019 7 11 N/A
11:55 am 11:55 Partly Cloudy 89 31.7 72 22.3 57 57 S 3 6 30.09 1019 10 16 N/A
12:15 pm 12:15 Mostly Cloudy 90 32.1 71 21.9 55 55 SE 6 9 30.09 1019 10 16 N/A
12:35 pm 12:35 Partly Cloudy 90 32.1 71 21.8 54 54 SSW 5 7 30.09 1019 10 16 N/A
12:55 pm 12:55 Mostly Cloudy 90 32.1 70 21 52 52 SW 6 9 30.09 1019 10 16 N/A
1:15 pm 13:15 Mostly Cloudy 90 32.1 70 20.9 52 52 N N/A 30.09 1019 10 16 N/A
1:35 pm 13:35 Mostly Cloudy 90 32.1 70 21.3 53 53 NW 5 7 30.09 1019 10 16 N/A
1:55 pm 13:55 Partly Cloudy 90 32.1 70 21.2 53 53 WSW 3 6 30.06 1018 10 16 N/A
2:15 pm 14:15 Sunny 90 32.1 68 20.1 49 49 N N/A 30.06 1018 10 16 N/A
2:35 pm 14:35 Sunny 90 32.2 69 20.6 50 50 NW 5 7 30.06 1018 10 16 N/A
2:55 pm 14:55 Sunny 90 32.1 67 19.4 47 47 N N/A 30.06 1018 10 16 N/A
3:15 pm 15:15 Sunny 91 32.6 68 20.2 48 48 NNW 3 6 30.06 1018 10 16 N/A
3:35 pm 15:35 Sunny 90 32.1 67 19.6 48 48 N N/A 30.03 1017 10 16 N/A
3:55 pm 15:55 Sunny 91 32.9 67 19.2 44 44 N N/A 30.03 1017 10 16 N/A
4:15 pm 16:15 Sunny 91 32.9 66 18.8 43 43 NW 3 6 30.03 1017 10 16 N/A
4:35 pm 16:35 Sunny 92 33.1 67 19.5 45 45 NNW 5 7 30.03 1017 10 16 N/A
4:55 pm 16:55 Sunny 92 33.2 67 19.7 45 45 NW 5 7 30.03 1017 10 16 N/A
5:15 pm 17:15 Sunny 94 34.5 69 20.5 44 44 N 3 6 30.03 1017 10 16 N/A
5:35 pm 17:35 Sunny 90 32.1 66 18.7 45 45 NNW 3 6 30.03 1017 10 16 N/A
5:55 pm 17:55 Sunny 91 32.7 66 19.1 45 45 NE 5 7 30.03 1017 10 16 N/A
6:15 pm 18:15 Mostly Cloudy 92 33.5 68 20 45 45 E 6 9 30.03 1017 10 16 N/A
6:35 pm 18:35 Cloudy 90 32.1 69 20.5 50 50 SE 8 13 30.03 1017 10 16 N/A
6:55 pm 18:55 Partly Cloudy 90 32.1 69 20.8 51 51 ESE 6 9 30.03 1017 10 16 N/A
7:15 pm 19:15 Partly Cloudy 90 32.1 70 20.9 52 52 SSE 5 7 30.03 1017 10 16 N/A
7:35 pm 19:35 Mostly Cloudy 87 30.8 73 22.7 62 62 W 3 6 30.03 1017 10 16 N/A
7:55 pm 19:55 Cloudy with Light Rain 83 28.4 70 21.2 65 65 SSW 20 31 30.09 1019 10 16 N/A
8:15 pm 20:15 Cloudy with Light Rain 78 25.4 70 21 77 77 WSW 8 13 30.09 1019 10 16 N/A
8:35 pm 20:35 Mostly Cloudy with Light Rain 74 23.6 66 18.8 75 75 NNE 15 24 30.12 1020 10 16 N/A
8:55 pm 20:55 Partly Cloudy 74 23.6 66 18.7 74 74 NNE 9 15 30.12 1020 10 16 N/A
9:15 pm 21:15 Clear 74 23.6 66 18.7 74 74 N 3 6 30.12 1020 10 16 N/A
9:35 pm 21:35 Clear 74 23.6 66 18.9 75 75 N N/A 30.12 1020 10 16 N/A
9:55 pm 21:55 Clear 74 23.6 67 19.2 76 76 N N/A 30.12 1020 10 16 N/A
10:15 pm 22:15 Clear 74 23.6 67 19.2 76 76 N 3 6 30.12 1020 10 16 N/A
10:35 pm 22:35 Clear 74 23.6 67 19.6 78 78 ENE 5 7 30.12 1020 10 16 N/A
10:55 pm 22:55 Clear 74 23.6 67 19.7 79 79 N N/A 30.12 1020 10 16 N/A
11:15 pm 23:15 Clear 74 23.6 68 20 80 80 N N/A 30.12 1020 10 16 N/A
11:35 pm 23:35 Clear 74 23.6 68 20.2 81 81 N N/A 30.09 1019 10 16 N/A
11:55 pm 23:55 Clear 72 22.3 67 19.2 83 83 N N/A 30.12 1020 10 16 N/A

Powered by AerisWeather